XNO212C EGPH-EGCC

Flight info

Callsign XNO212C
Flight time 0h 39m
Altitude 25000
Route GOSAM P600 FENIK L612 LAKEY
Aircraft A20N/M-SDE2E3FGHIRWXY/LB1

Departure

Time 2026-05-06 03:53
Airport Edinburgh Airport (EGPH)

Arrival

Time 2026-05-06 04:33
Airport Manchester Airport (EGCC)
Time Latitude Longitude Altitude Speed Heading
2026-05-06 03:39 55.94809 -3.35751 116 ft 0 kts 208°
2026-05-06 03:43 55.94811 -3.35749 114 ft 1 kts 208°
2026-05-06 03:43 55.94823 -3.35736 116 ft 2 kts 211°
2026-05-06 03:44 55.94836 -3.35723 111 ft 2 kts 215°
2026-05-06 03:44 55.94848 -3.35706 114 ft 2 kts 230°
2026-05-06 03:44 55.94857 -3.35681 113 ft 3 kts 250°
2026-05-06 03:44 55.94861 -3.35640 115 ft 3 kts 279°
2026-05-06 03:45 55.94855 -3.35604 115 ft 0 kts 296°
2026-05-06 03:46 55.94859 -3.35620 115 ft 4 kts 296°
2026-05-06 03:46 55.94879 -3.35686 112 ft 8 kts 298°
2026-05-06 03:46 55.94910 -3.35788 114 ft 11 kts 299°
2026-05-06 03:47 55.94972 -3.35863 115 ft 12 kts
2026-05-06 03:47 55.95049 -3.35856 114 ft 12 kts 317°
2026-05-06 03:47 55.95092 -3.35994 112 ft 14 kts 292°
2026-05-06 03:47 55.95125 -3.36170 115 ft 16 kts 288°
2026-05-06 03:48 55.95108 -3.36358 114 ft 17 kts 237°
2026-05-06 03:48 55.95045 -3.36543 115 ft 19 kts 239°
2026-05-06 03:48 55.94975 -3.36751 114 ft 20 kts 239°
2026-05-06 03:48 55.94900 -3.36975 113 ft 22 kts 239°
2026-05-06 03:49 55.94820 -3.37206 115 ft 22 kts 237°
2026-05-06 03:49 55.94736 -3.37440 112 ft 18 kts 239°
2026-05-06 03:49 55.94674 -3.37636 116 ft 19 kts 238°
2026-05-06 03:49 55.94602 -3.37847 113 ft 21 kts 239°
2026-05-06 03:50 55.94527 -3.38075 115 ft 22 kts 239°
2026-05-06 03:50 55.94448 -3.38305 114 ft 18 kts 239°
2026-05-06 03:50 55.94381 -3.38505 113 ft 20 kts 239°
2026-05-06 03:50 55.94312 -3.38706 114 ft 10 kts 238°
2026-05-06 03:51 55.94281 -3.38823 115 ft 11 kts 267°
2026-05-06 03:51 55.94330 -3.38913 114 ft 0 kts 328°
2026-05-06 03:52 55.94345 -3.38930 113 ft 6 kts 328°
2026-05-06 03:52 55.94398 -3.38972 112 ft 10 kts 357°
2026-05-06 03:52 55.94447 -3.38880 113 ft 9 kts 59°
2026-05-06 03:52 55.94448 -3.38876 113 ft 0 kts 59°
2026-05-06 03:53 55.94531 -3.38627 111 ft 64 kts 59°
2026-05-06 03:53 55.94903 -3.37546 112 ft 137 kts 58°
2026-05-06 03:53 55.95483 -3.35864 382 ft 170 kts 58°
2026-05-06 03:53 55.96150 -3.34043 1148 ft 179 kts 51°
2026-05-06 03:54 55.97103 -3.32600 2090 ft 178 kts 32°
2026-05-06 03:54 55.98197 -3.31683 2949 ft 176 kts 27°
2026-05-06 03:54 55.99332 -3.30639 3561 ft 191 kts 33°
2026-05-06 03:54 56.00562 -3.29331 3981 ft 219 kts 23°
2026-05-06 03:55 56.02167 -3.28810 4277 ft 253 kts 358°
2026-05-06 03:55 56.03944 -3.29696 4736 ft 279 kts 332°
2026-05-06 03:55 56.05462 -3.31974 5254 ft 300 kts 309°
2026-05-06 03:55 56.06426 -3.35385 5776 ft 312 kts 288°
2026-05-06 03:56 56.06637 -3.39179 5708 ft 301 kts 264°
2026-05-06 03:56 56.05986 -3.42611 5833 ft 280 kts 241°
2026-05-06 03:56 56.04915 -3.45342 5972 ft 267 kts 232°
2026-05-06 03:56 56.03690 -3.47885 6013 ft 269 kts 229°
2026-05-06 03:57 56.02455 -3.50441 6079 ft 276 kts 235°
2026-05-06 03:57 56.01396 -3.53466 6221 ft 301 kts 242°
2026-05-06 03:57 56.00302 -3.56859 6588 ft 323 kts 243°
2026-05-06 03:57 55.99457 -3.60549 7293 ft 329 kts 256°
2026-05-06 03:58 55.98861 -3.64568 7962 ft 341 kts 256°
2026-05-06 03:58 55.98268 -3.68708 8942 ft 337 kts 257°
2026-05-06 03:58 55.97705 -3.72647 10013 ft 318 kts 257°
2026-05-06 03:58 55.97161 -3.76418 10560 ft 322 kts 257°
2026-05-06 03:59 55.96585 -3.80348 11240 ft 329 kts 255°
2026-05-06 03:59 55.95576 -3.84034 12091 ft 335 kts 234°
2026-05-06 03:59 55.93839 -3.86816 12908 ft 342 kts 212°
2026-05-06 03:59 55.92392 -3.87958 13433 ft 348 kts 198°
2026-05-06 04:00 55.89958 -3.88420 14186 ft 356 kts 177°
2026-05-06 04:00 55.86699 -3.87254 15089 ft 364 kts 167°
2026-05-06 04:00 55.85035 -3.86448 15564 ft 367 kts 167°
2026-05-06 04:00 55.82577 -3.85329 16246 ft 370 kts 169°
2026-05-06 04:01 55.80046 -3.84325 16908 ft 374 kts 171°
2026-05-06 04:01 55.77476 -3.83418 17584 ft 377 kts 172°
2026-05-06 04:01 55.74870 -3.82562 18257 ft 381 kts 172°
2026-05-06 04:01 55.72278 -3.81736 18855 ft 384 kts 173°
2026-05-06 04:02 55.69621 -3.80896 19467 ft 387 kts 173°
2026-05-06 04:02 55.66959 -3.80056 20057 ft 390 kts 173°
2026-05-06 04:02 55.64263 -3.79204 20642 ft 393 kts 173°
2026-05-06 04:02 55.61591 -3.78360 21204 ft 396 kts 173°
2026-05-06 04:03 55.58859 -3.77496 21781 ft 399 kts 173°
2026-05-06 04:03 55.56111 -3.76628 22350 ft 402 kts 173°
2026-05-06 04:03 55.53334 -3.75753 22904 ft 405 kts 173°
2026-05-06 04:03 55.50545 -3.74874 23472 ft 408 kts 173°
2026-05-06 04:04 55.47774 -3.74003 23955 ft 411 kts 173°
2026-05-06 04:04 55.44939 -3.73112 24424 ft 413 kts 173°
2026-05-06 04:04 55.42096 -3.72220 24873 ft 415 kts 173°
2026-05-06 04:04 55.39268 -3.71335 25056 ft 417 kts 173°
2026-05-06 04:05 55.36407 -3.70441 25089 ft 417 kts 173°
2026-05-06 04:05 55.33545 -3.69548 25096 ft 417 kts 173°
2026-05-06 04:05 55.30674 -3.68654 25092 ft 416 kts 173°
2026-05-06 04:05 55.27816 -3.67765 25090 ft 416 kts 173°
2026-05-06 04:06 55.24995 -3.66888 25089 ft 416 kts 173°
2026-05-06 04:06 55.22133 -3.66000 25091 ft 416 kts 173°
2026-05-06 04:06 55.19283 -3.65117 25093 ft 416 kts 173°
2026-05-06 04:06 55.16430 -3.64236 25092 ft 416 kts 173°
2026-05-06 04:07 55.13596 -3.63361 25087 ft 416 kts 173°
2026-05-06 04:07 55.10742 -3.62480 25090 ft 416 kts 173°
2026-05-06 04:07 55.07876 -3.61598 25091 ft 416 kts 173°
2026-05-06 04:07 55.05048 -3.60728 25090 ft 416 kts 173°
2026-05-06 04:08 55.02194 -3.59852 25082 ft 416 kts 173°
2026-05-06 04:08 54.99350 -3.58689 25086 ft 419 kts 166°
2026-05-06 04:08 54.96629 -3.56913 25087 ft 422 kts 159°
2026-05-06 04:08 54.94005 -3.54551 25086 ft 424 kts 154°
2026-05-06 04:09 54.91397 -3.52061 25053 ft 425 kts 154°
2026-05-06 04:09 54.88836 -3.49633 24838 ft 424 kts 154°
2026-05-06 04:09 54.86248 -3.47194 24590 ft 422 kts 154°
2026-05-06 04:09 54.83666 -3.44771 24342 ft 420 kts 154°
2026-05-06 04:10 54.81097 -3.42366 24095 ft 419 kts 154°
2026-05-06 04:10 54.78519 -3.39959 23864 ft 418 kts 154°
2026-05-06 04:10 54.75963 -3.37576 23630 ft 416 kts 154°
2026-05-06 04:10 54.73441 -3.35228 23346 ft 414 kts 154°
2026-05-06 04:11 54.70854 -3.33036 23065 ft 411 kts 159°
2026-05-06 04:11 54.68229 -3.31075 22787 ft 409 kts 159°
2026-05-06 04:11 54.65611 -3.29114 22508 ft 408 kts 159°
2026-05-06 04:11 54.63043 -3.27189 22240 ft 407 kts 159°
2026-05-06 04:12 54.60442 -3.25239 21969 ft 405 kts 159°
2026-05-06 04:12 54.57852 -3.23300 21699 ft 404 kts 159°
2026-05-06 04:12 54.55310 -3.21399 21435 ft 402 kts 159°
2026-05-06 04:12 54.52737 -3.19480 21171 ft 401 kts 159°
2026-05-06 04:13 54.50174 -3.17568 20905 ft 400 kts 159°
2026-05-06 04:13 54.47611 -3.15660 20645 ft 399 kts 159°
2026-05-06 04:13 54.45094 -3.13790 20397 ft 398 kts 159°
2026-05-06 04:13 54.42555 -3.11906 20140 ft 396 kts 159°
2026-05-06 04:14 54.40012 -3.10021 19886 ft 395 kts 159°
2026-05-06 04:14 54.37517 -3.08173 19636 ft 394 kts 159°
2026-05-06 04:14 54.34995 -3.06309 19393 ft 393 kts 159°
2026-05-06 04:14 54.32503 -3.04470 19144 ft 392 kts 159°
2026-05-06 04:15 54.29972 -3.02605 18897 ft 390 kts 159°
2026-05-06 04:15 54.27506 -3.00789 18647 ft 389 kts 159°
2026-05-06 04:15 54.25007 -2.98954 18414 ft 388 kts 159°
2026-05-06 04:15 54.22463 -2.97465 18149 ft 385 kts 167°
2026-05-06 04:16 54.19895 -2.96349 17867 ft 383 kts 168°
2026-05-06 04:16 54.17313 -2.95224 17597 ft 381 kts 168°
2026-05-06 04:16 54.14743 -2.94098 17326 ft 380 kts 168°
2026-05-06 04:16 54.12180 -2.92973 17058 ft 379 kts 168°
2026-05-06 04:17 54.09658 -2.91866 16794 ft 377 kts 168°
2026-05-06 04:17 54.07112 -2.90750 16528 ft 375 kts 167°
2026-05-06 04:17 54.04606 -2.89652 16272 ft 374 kts 167°
2026-05-06 04:17 54.02089 -2.88551 16008 ft 373 kts 167°
2026-05-06 04:18 53.99580 -2.87455 15749 ft 372 kts 167°
2026-05-06 04:18 53.97074 -2.86361 15493 ft 370 kts 167°
2026-05-06 04:18 53.94579 -2.85275 15234 ft 369 kts 167°
2026-05-06 04:18 53.92096 -2.84194 14994 ft 367 kts 167°
2026-05-06 04:19 53.89614 -2.83115 14745 ft 366 kts 167°
2026-05-06 04:19 53.87148 -2.82045 14304 ft 367 kts 167°
2026-05-06 04:19 53.84671 -2.80971 13810 ft 365 kts 167°
2026-05-06 04:19 53.82243 -2.79897 13171 ft 365 kts 166°
2026-05-06 04:20 53.79781 -2.78651 12251 ft 372 kts 164°
2026-05-06 04:20 53.77281 -2.77411 11525 ft 372 kts 171°
2026-05-06 04:20 53.74771 -2.77332 10848 ft 360 kts 191°
2026-05-06 04:20 53.72343 -2.78203 10189 ft 351 kts 194°
2026-05-06 04:21 53.69980 -2.79114 9484 ft 344 kts 195°
2026-05-06 04:21 53.67666 -2.80017 8759 ft 338 kts 194°
2026-05-06 04:21 53.65397 -2.80916 8053 ft 333 kts 194°
2026-05-06 04:21 53.63181 -2.81806 7374 ft 328 kts 194°
2026-05-06 04:22 53.60982 -2.82703 6787 ft 320 kts 195°
2026-05-06 04:22 53.58873 -2.83571 6486 ft 304 kts 195°
2026-05-06 04:22 53.56842 -2.84205 6214 ft 288 kts 180°
2026-05-06 04:23 53.53090 -2.83221 5681 ft 261 kts 169°
2026-05-06 04:23 53.51318 -2.82669 5301 ft 255 kts 169°
2026-05-06 04:23 53.49589 -2.82134 4914 ft 249 kts 169°
2026-05-06 04:23 53.47909 -2.81623 4518 ft 245 kts 169°
2026-05-06 04:24 53.46245 -2.81124 4123 ft 241 kts 169°
2026-05-06 04:24 53.44606 -2.80641 3734 ft 236 kts 170°
2026-05-06 04:24 53.42990 -2.80174 3346 ft 236 kts 169°
2026-05-06 04:24 53.41408 -2.79665 3049 ft 231 kts 159°
2026-05-06 04:25 53.40083 -2.78176 3006 ft 231 kts 131°
2026-05-06 04:25 53.38981 -2.76199 2999 ft 231 kts 131°
2026-05-06 04:25 53.37927 -2.74317 2999 ft 230 kts 131°
2026-05-06 04:25 53.36841 -2.72389 3000 ft 230 kts 131°
2026-05-06 04:26 53.35734 -2.70431 2998 ft 230 kts 131°
2026-05-06 04:26 53.34629 -2.68480 2999 ft 231 kts 131°
2026-05-06 04:26 53.33518 -2.66520 3000 ft 231 kts 131°
2026-05-06 04:26 53.32421 -2.64586 3001 ft 231 kts 131°
2026-05-06 04:27 53.31313 -2.62634 2996 ft 231 kts 131°
2026-05-06 04:27 53.30237 -2.60743 2993 ft 216 kts 131°
2026-05-06 04:27 53.29239 -2.58994 2983 ft 200 kts 131°
2026-05-06 04:27 53.28318 -2.57382 2932 ft 186 kts 131°
2026-05-06 04:28 53.27448 -2.55854 2930 ft 188 kts 131°
2026-05-06 04:28 53.26528 -2.54231 2793 ft 189 kts 131°
2026-05-06 04:28 53.25637 -2.52665 2610 ft 188 kts 130°
2026-05-06 04:28 53.24985 -2.50842 2519 ft 182 kts 100°
2026-05-06 04:29 53.25029 -2.48761 2435 ft 179 kts 71°
2026-05-06 04:29 53.25553 -2.46921 2358 ft 177 kts 56°
2026-05-06 04:29 53.26267 -2.45270 2264 ft 171 kts 50°
2026-05-06 04:29 53.26991 -2.43785 2157 ft 159 kts 49°
2026-05-06 04:30 53.27675 -2.42380 1969 ft 154 kts 49°
2026-05-06 04:30 53.28357 -2.40984 1777 ft 154 kts 49°
2026-05-06 04:30 53.29037 -2.39589 1561 ft 153 kts 49°
2026-05-06 04:30 53.29680 -2.38267 1351 ft 142 kts 49°
2026-05-06 04:31 53.30289 -2.37020 1149 ft 139 kts 49°
2026-05-06 04:31 53.30898 -2.35769 951 ft 137 kts 50°
2026-05-06 04:31 53.31487 -2.34559 738 ft 137 kts 50°
2026-05-06 04:31 53.32080 -2.33339 585 ft 137 kts 50°
2026-05-06 04:32 53.32686 -2.32091 384 ft 137 kts 50°
2026-05-06 04:32 53.33281 -2.30864 219 ft 136 kts 50°
2026-05-06 04:32 53.33864 -2.29691 209 ft 120 kts 51°
2026-05-06 04:32 53.34217 -2.28965 218 ft 58 kts 51°
2026-05-06 04:33 53.34488 -2.28551 224 ft 43 kts 25°
2026-05-06 04:33 53.34696 -2.28407 228 ft 28 kts 29°
2026-05-06 04:33 53.34825 -2.28173 231 ft 27 kts 49°
2026-05-06 04:33 53.34939 -2.27930 235 ft 26 kts 52°
2026-05-06 04:34 53.35053 -2.27696 238 ft 26 kts 51°
2026-05-06 04:34 53.35163 -2.27465 241 ft 25 kts 51°
2026-05-06 04:34 53.35270 -2.27245 246 ft 24 kts 52°
2026-05-06 04:34 53.35374 -2.27030 250 ft 23 kts 50°
2026-05-06 04:35 53.35455 -2.26895 252 ft 13 kts 14°
2026-05-06 04:35 53.35528 -2.26960 256 ft 12 kts 321°
2026-05-06 04:35 53.35601 -2.27056 258 ft 15 kts 322°
2026-05-06 04:35 53.35688 -2.27175 255 ft 19 kts 320°
2026-05-06 04:36 53.35756 -2.27170 255 ft 11 kts 47°
2026-05-06 04:36 53.35807 -2.27064 255 ft 13 kts 60°
2026-05-06 04:36 53.35857 -2.26927 255 ft 15 kts 53°
2026-05-06 04:36 53.35933 -2.26835 255 ft 12 kts 340°
2026-05-06 04:37 53.36000 -2.26809 255 ft 11 kts 43°
2026-05-06 04:37 53.36040 -2.26796 255 ft 4 kts 310°
2026-05-06 04:37 53.36061 -2.26838 255 ft 0 kts 313°